This demonstration page uses our WeatherBlox Daily Observations layout. Learn more.

Hourly Observations for December 6, 2019

Temp ( °F °C ) Dew Point ( °F °C ) Humidity (%) Winds ( mph kmh ) Pressure ( in mb ) Visibility ( mi km ) Precip ( " mm )
12:54 am 00:54 Partly Cloudy 32 0 26 -3.3 79 79 N 16 26 30.27 1025 10 16.09344 0 0
1:09 am 01:09 Mostly Cloudy 31 -0.6 26 -3.3 82 82 N 13 20 30.36 1028 10 16.09344 0 0
1:54 am 01:54 Cloudy 31 -0.6 25 -3.9 79 79 N 17 28 30.3 1026 10 16.09344 0 0
2:54 am 02:54 Cloudy 32 0 25 -3.9 75 75 N 16 26 30.33 1027 10 16.09344 0 0
3:54 am 03:54 Cloudy 32 0 25 -3.9 75 75 N 15 24 30.36 1028 10 16.09344 0 0
4:54 am 04:54 Cloudy 31 -0.6 23 -5 72 72 N 15 24 30.36 1028 10 16.09344 0 0
5:54 am 05:54 Cloudy 30 -1.1 23 -5 75 75 NNE 10 17 30.39 1029 10 16.09344 0 0
6:54 am 06:54 Cloudy 28 -2.2 21 -6.1 75 75 N 14 22 30.39 1029 10 16.09344 0 0
7:54 am 07:54 Cloudy 27 -2.8 21 -6.1 78 78 NNE 7 11 30.42 1030 10 16.09344 0 0
8:14 am 08:14 Cloudy 27 -2.8 22 -5.6 81 81 N 7 11 30.48 1032 10 16.09344 0 0
8:54 am 08:54 Cloudy 30 -1.1 22 -5.6 72 72 N 9 15 30.45 1031 10 16.09344 0 0
9:25 am 09:25 Partly Cloudy 29 -1.7 22 -5.6 75 75 N 9 15 30.5 1033 10 16.09344 0 0
9:54 am 09:54 Sunny 31 -0.6 22 -5.6 69 69 N 10 17 30.48 1032 10 16.09344 0 0
10:54 am 10:54 Sunny 33 0.6 23 -5 66 66 NNW 7 11 30.48 1032 10 16.09344 0 0
11:54 am 11:54 Sunny 35 1.7 22 -5.6 59 59 N 7 11 30.45 1031 10 16.09344 0 0
12:54 pm 12:54 Sunny 37 2.8 22 -5.6 54 54 N 5 7 30.42 1030 10 16.09344 0 0
1:54 pm 13:54 Sunny 37 2.8 22 -5.6 54 54 Calm 30.39 1029 10 16.09344 0 0
2:54 pm 14:54 Sunny 38 3.3 21 -6.1 51 51 S 3 6 30.39 1029 10 16.09344 0 0
3:54 pm 15:54 Sunny 39 3.9 21 -6.1 48 48 SSE 3 6 30.39 1029 10 16.09344 0 0
4:54 pm 16:54 Sunny 35 1.7 20 -6.7 54 54 S 6 9 30.39 1029 10 16.09344 0 0
5:54 pm 17:54 Clear 32 0 21 -6.1 64 64 SSE 5 7 30.39 1029 10 16.09344 0 0
6:54 pm 18:54 Clear 31 -0.6 21 -6.1 67 67 S 3 6 30.39 1029 10 16.09344 0 0
7:54 pm 19:54 Clear 24 -4.4 19 -7.2 81 81 S 8 13 30.39 1029 10 16.09344 0 0
8:54 pm 20:54 Clear 24 -4.4 18 -7.8 77 77 S 7 11 30.36 1028 10 16.09344 0 0
9:54 pm 21:54 Clear 26 -3.3 19 -7.2 75 75 SSE 6 9 30.36 1028 10 16.09344 0 0
10:54 pm 22:54 Clear 26 -3.3 19 -7.2 75 75 SSE 7 11 30.36 1028 10 16.09344 0 0
11:54 pm 23:54 Clear 24 -4.4 18 -7.8 77 77 S 6 9 30.33 1027 10 16.09344 0 0

Powered by AerisWeather